Location: Guayaquil
(2.1667°S, 79.9000°W)
Time: 17:47:09
(UTC-05:00)

ISS - Visible Passes

Search period start: 15 February 2019 00:00
Search period end: 25 February 2019 00:00
Orbit: 403 x 411 km, 51.6° (Epoch: 16 February)

Date Brightness Start Highest point End Pass type
(mag) Time Alt. Az. Time Alt. Az. Time Alt. Az.
16 Feb -0.6 19:21:16 10° W 19:23:23 16° SW 19:25:32 10° SSW visible
17 Feb -0.6 05:18:32 10° SSE 05:20:27 15° SE 05:22:23 10° E visible
18 Feb -3.4 06:02:17 10° SW 06:05:24 42° NW 06:08:29 10° NNE visible
19 Feb -3.4 05:12:21 25° SSW 05:14:00 61° SE 05:17:12 10° NE visible
20 Feb -1.7 05:58:14 10° WNW 05:58:52 11° NW 05:59:44 10° NW visible
